�������l�o���
Date,Time,MP-1(��Sv/h),MP-2(��Sv/h),MP-3(��Sv/h),MP-4(��Sv/h),MP-5(��Sv/h),MP-6(��Sv/h),MP-7(��Sv/h),MP-8(��Sv/h),����,����(m/s),���J
2019/02/14,00:00,0.770,1.145,0.791,1.471,1.056,0.441,0.788,0.744,�k��,3.0,��
2019/02/14,00:10,0.771,1.143,0.792,1.469,1.054,0.441,0.786,0.749,�k��,3.6,��
2019/02/14,00:20,0.771,1.144,0.793,1.469,1.055,0.440,0.789,0.746,���k��,3.4,��
2019/02/14,00:30,0.771,1.144,0.792,1.469,1.055,0.440,0.788,0.746,�k��,3.5,��
2019/02/14,00:40,0.770,1.142,0.793,1.469,1.056,0.442,0.789,0.746,���k��,1.5,��
2019/02/14,00:50,0.773,1.142,0.792,1.469,1.056,0.440,0.787,0.747,��,1.5,��
2019/02/14,01:00,0.772,1.142,0.791,1.468,1.055,0.441,0.788,0.747,���k��,2.6,��
2019/02/14,01:10,0.771,1.143,0.791,1.472,1.056,0.441,0.788,0.747,�k��,4.2,��
2019/02/14,01:20,0.772,1.144,0.795,1.472,1.055,0.440,0.788,0.747,���k��,6.3,��
2019/02/14,01:30,0.770,1.142,0.791,1.470,1.054,0.441,0.788,0.746,���k��,5.2,��
2019/02/14,01:40,0.770,1.144,0.793,1.471,1.053,0.439,0.787,0.747,���k��,5.4,��
2019/02/14,01:50,0.771,1.142,0.791,1.468,1.054,0.440,0.787,0.747,���k��,6.8,��
2019/02/14,02:00,0.770,1.143,0.793,1.472,1.055,0.442,0.786,0.746,���k��,6.2,��
2019/02/14,02:10,0.770,1.143,0.793,1.471,1.055,0.441,0.789,0.747,���k��,6.4,��
2019/02/14,02:20,0.771,1.142,0.790,1.469,1.054,0.441,0.788,0.747,���k��,6.4,��
2019/02/14,02:30,0.768,1.144,0.792,1.469,1.054,0.438,0.788,0.746,���k��,7.7,��
2019/02/14,02:40,0.769,1.144,0.792,1.467,1.054,0.441,0.787,0.746,���k��,7.2,��
2019/02/14,02:50,0.770,1.143,0.792,1.470,1.053,0.443,0.786,0.746,���k��,6.6,��
2019/02/14,03:00,0.770,1.144,0.792,1.469,1.055,0.441,0.787,0.748,�k��,7.4,��
2019/02/14,03:10,0.770,1.142,0.790,1.467,1.054,0.439,0.788,0.747,�k��,7.1,��
2019/02/14,03:20,0.769,1.142,0.792,1.467,1.053,0.440,0.786,0.745,���k��,8.2,��
2019/02/14,03:30,0.770,1.142,0.792,1.470,1.056,0.441,0.788,0.748,���k��,6.3,��
2019/02/14,03:40,0.771,1.141,0.792,1.469,1.054,0.440,0.789,0.746,���k��,5.2,��
2019/02/14,03:50,0.770,1.144,0.793,1.470,1.055,0.440,0.787,0.746,���k��,5.8,��
2019/02/14,04:00,0.770,1.143,0.792,1.468,1.053,0.439,0.786,0.746,�k��,7.4,��
2019/02/14,04:10,0.771,1.142,0.793,1.469,1.056,0.441,0.787,0.747,�k��,8.8,��
2019/02/14,04:20,0.771,1.141,0.790,1.470,1.055,0.440,0.786,0.747,�k��,9.5,��
2019/02/14,04:30,0.769,1.141,0.793,1.469,1.050,0.440,0.787,0.744,�k��,11.0,��
2019/02/14,04:40,0.770,1.140,0.790,1.469,1.054,0.442,0.788,0.744,���k��,10.9,��
2019/02/14,04:50,0.768,1.141,0.790,1.468,1.054,0.440,0.786,0.746,�k��,11.3,��
2019/02/14,05:00,0.769,1.142,0.791,1.468,1.053,0.439,0.783,0.747,���k��,10.5,��
2019/02/14,05:10,0.770,1.142,0.790,1.468,1.053,0.438,0.785,0.747,���k��,9.9,��
2019/02/14,05:20,0.769,1.142,0.791,1.469,1.053,0.438,0.787,0.748,���k��,8.6,��
2019/02/14,05:30,0.771,1.143,0.790,1.471,1.050,0.437,0.785,0.746,�k��,6.8,��
2019/02/14,05:40,0.769,1.143,0.790,1.467,1.050,0.438,0.785,0.748,�k��,5.0,��
2019/02/14,05:50,0.771,1.140,0.791,1.470,1.052,0.440,0.784,0.746,�k��,5.5,��
2019/02/14,06:00,0.770,1.142,0.792,1.470,1.054,0.439,0.786,0.746,�k��,4.4,��
2019/02/14,06:10,0.770,1.141,0.791,1.469,1.053,0.439,0.786,0.746,�k�k��,4.8,��
2019/02/14,06:20,0.769,1.140,0.790,1.470,1.053,0.440,0.788,0.746,�k�k��,3.6,��
2019/02/14,06:30,0.768,1.142,0.792,1.468,1.053,0.440,0.787,0.745,�k,2.2,��
2019/02/14,06:40,0.770,1.138,0.788,1.468,1.052,0.441,0.789,0.746,�k��,3.0,��
2019/02/14,06:50,0.769,1.140,0.790,1.471,1.053,0.439,0.789,0.746,���k��,3.6,��
2019/02/14,07:00,0.771,1.142,0.791,1.467,1.052,0.439,0.788,0.747,��,2.5,��
2019/02/14,07:10,0.771,1.139,0.790,1.472,1.054,0.439,0.786,0.746,��,1.5,��
2019/02/14,07:20,0.770,1.143,0.792,1.470,1.052,0.442,0.787,0.744,��,2.3,��
2019/02/14,07:30,0.770,1.142,0.789,1.473,1.051,0.440,0.788,0.747,��,2.8,��
2019/02/14,07:40,0.768,1.140,0.790,1.469,1.053,0.439,0.786,0.745,���k��,3.7,��
2019/02/14,07:50,0.771,1.142,0.791,1.471,1.053,0.442,0.788,0.747,���k��,4.2,��
2019/02/14,08:00,0.769,1.141,0.790,1.470,1.052,0.441,0.787,0.747,���k��,4.9,��
2019/02/14,08:10,0.773,1.142,0.791,1.470,1.052,0.439,0.787,0.747,�k��,4.3,��
2019/02/14,08:20,0.769,1.139,0.791,1.470,1.052,0.440,0.788,0.747,�k��,3.8,��
2019/02/14,08:30,0.772,1.142,0.793,1.467,1.055,0.439,0.790,0.747,�k��,3.4,��
2019/02/14,08:40,0.774,1.139,0.789,1.466,1.053,0.440,0.789,0.746,�k�k��,2.9,��
2019/02/14,08:50,0.773,1.138,0.790,1.471,1.053,0.440,0.790,0.746,�k��,3.3,��
2019/02/14,09:00,0.771,1.142,0.791,1.470,1.053,0.438,0.790,0.746,�k�k��,1.8,��
2019/02/14,09:10,0.773,1.140,0.791,1.472,1.054,0.439,0.789,0.744,�k�k��,6.2,��
2019/02/14,09:20,0.773,1.142,0.787,1.471,1.054,0.440,0.791,0.748,�k�k��,5.3,��
2019/02/14,09:30,0.774,1.140,0.785,1.471,1.053,0.440,0.787,0.745,�k�k��,5.4,��
2019/02/14,09:40,0.771,1.139,0.788,1.468,1.054,0.440,0.787,0.745,�k,4.8,��
2019/02/14,09:50,0.772,1.143,0.786,1.471,1.051,0.441,0.788,0.746,�k�k��,6.2,��
2019/02/14,10:00,0.773,1.138,0.786,1.471,1.053,0.439,0.787,0.746,�k�k��,7.2,��
2019/02/14,10:10,0.774,1.137,0.785,1.470,1.054,0.442,0.787,0.747,�k�k��,6.4,��
2019/02/14,10:20,0.773,1.143,0.789,1.471,1.052,0.441,0.788,0.747,�k�k��,10.5,��
2019/02/14,10:30,0.771,1.140,0.787,1.470,1.054,0.441,0.787,0.746,�k��,10.0,��
2019/02/14,10:40,0.772,1.140,0.789,1.470,1.055,0.439,0.786,0.746,�k��,7.9,��
2019/02/14,10:50,0.775,1.140,0.788,1.473,1.055,0.441,0.786,0.747,�k�k��,9.5,��
2019/02/14,11:00,0.775,1.143,0.790,1.471,1.055,0.440,0.788,0.747,�k��,8.5,��
2019/02/14,11:10,0.773,1.143,0.788,1.474,1.057,0.442,0.787,0.746,�k��,7.4,��
2019/02/14,11:20,0.771,1.144,0.787,1.472,1.057,0.440,0.787,0.747,�k��,8.3,��
2019/02/14,11:30,0.759,1.145,0.788,1.475,1.056,0.439,0.787,0.747,�k��,8.8,��
2019/02/14,11:40,0.758,1.142,0.790,1.474,1.057,0.439,0.789,0.748,�k��,8.1,��
2019/02/14,11:50,0.760,1.143,0.789,1.472,1.058,0.441,0.790,0.749,���k��,7.9,��
2019/02/14,12:00,0.761,1.144,0.789,1.473,1.058,0.441,0.789,0.747,�k��,5.9,��
2019/02/14,12:10,0.757,1.146,0.790,1.473,1.060,0.440,0.787,0.747,���k��,5.7,��
2019/02/14,12:20,0.764,1.146,0.789,1.476,1.058,0.441,0.788,0.748,�k��,7.6,��
2019/02/14,12:30,0.774,1.144,0.790,1.475,1.057,0.440,0.787,0.746,���k��,5.8,��
2019/02/14,12:40,0.774,1.143,0.790,1.475,1.058,0.441,0.788,0.748,���k��,5.3,��
2019/02/14,12:50,0.774,1.145,0.792,1.477,1.061,0.439,0.787,0.749,�k��,6.1,��
2019/02/14,13:00,0.775,1.144,0.791,1.475,1.055,0.441,0.786,0.749,���k��,6.0,��
2019/02/14,13:10,0.775,1.141,0.791,1.474,1.059,0.441,0.787,0.748,�k��,6.0,��
2019/02/14,13:20,0.775,1.143,0.795,1.476,1.058,0.442,0.787,0.747,�k�k��,5.7,��
2019/02/14,13:30,0.776,1.144,0.794,1.475,1.058,0.440,0.787,0.749,���k��,5.6,��
2019/02/14,13:40,0.777,1.146,0.794,1.474,1.060,0.442,0.786,0.748,�k��,6.6,��
2019/02/14,13:50,0.776,1.145,0.793,1.474,1.057,0.441,0.786,0.747,�k�k��,5.7,��
2019/02/14,14:00,0.777,1.145,0.795,1.475,1.057,0.442,0.787,0.745,�k��,5.2,��
2019/02/14,14:10,0.776,1.144,0.793,1.475,1.059,0.441,0.786,0.745,�k��,6.0,��
2019/02/14,14:20,0.774,1.143,0.793,1.476,1.059,0.441,0.788,0.746,�k��,7.1,��
2019/02/14,14:30,0.776,1.144,0.792,1.474,1.061,0.441,0.787,0.748,�k��,5.4,��
2019/02/14,14:40,0.776,1.144,0.794,1.476,1.061,0.442,0.790,0.748,�k��,4.5,��
2019/02/14,14:50,0.778,1.146,0.795,1.477,1.056,0.442,0.788,0.750,�k��,4.3,��
2019/02/14,15:00,0.775,1.149,0.796,1.478,1.062,0.441,0.791,0.748,�k��,5.5,��
2019/02/14,15:10,0.776,1.146,0.796,1.476,1.062,0.443,0.790,0.748,�k��,6.6,��
2019/02/14,15:20,0.775,1.149,0.794,1.477,1.058,0.442,0.790,0.748,�k��,6.2,��
2019/02/14,15:30,0.777,1.145,0.795,1.478,1.063,0.440,0.789,0.748,�k��,6.1,��
2019/02/14,15:40,0.776,1.146,0.795,1.473,1.063,0.441,0.788,0.748,���k��,5.5,��
2019/02/14,15:50,0.777,1.148,0.794,1.477,1.064,0.441,0.788,0.748,�k��,4.1,��
2019/02/14,16:00,0.774,1.149,0.795,1.474,1.063,0.441,0.791,0.747,��,4.7,��
2019/02/14,16:10,0.776,1.148,0.795,1.476,1.062,0.441,0.790,0.749,��,3.8,��
2019/02/14,16:20,0.776,1.151,0.795,1.473,1.063,0.440,0.791,0.746,���k��,4.7,��
2019/02/14,16:30,0.775,1.151,0.796,1.476,1.062,0.440,0.787,0.748,���k��,4.3,��
2019/02/14,16:40,0.775,1.153,0.792,1.478,1.062,0.442,0.788,0.747,�k��,5.4,��
2019/02/14,16:50,0.776,1.149,0.795,1.475,1.063,0.442,0.789,0.747,���k��,4.4,��
2019/02/14,17:00,0.775,1.148,0.796,1.479,1.063,0.441,0.788,0.748,���k��,3.8,�L
2019/02/14,17:10,0.773,1.151,0.795,1.477,1.063,0.441,0.788,0.746,���k��,4.6,��
2019/02/14,17:20,0.775,1.154,0.797,1.475,1.061,0.441,0.789,0.748,���k��,4.4,��
2019/02/14,17:30,0.776,1.150,0.796,1.477,1.063,0.440,0.789,0.747,�k��,4.8,��
2019/02/14,17:40,0.776,1.150,0.796,1.476,1.063,0.442,0.790,0.747,�k��,5.0,��
2019/02/14,17:50,0.775,1.150,0.795,1.475,1.060,0.440,0.789,0.747,���k��,4.7,��
2019/02/14,18:00,0.774,1.151,0.796,1.475,1.060,0.440,0.789,0.746,���k��,4.3,��
2019/02/14,18:10,0.774,1.149,0.795,1.474,1.063,0.442,0.788,0.747,���k��,3.7,��
2019/02/14,18:20,0.775,1.151,0.794,1.476,1.062,0.440,0.789,0.747,���k��,3.7,��
2019/02/14,18:30,0.776,1.150,0.794,1.471,1.063,0.440,0.787,0.746,���k��,4.0,��
2019/02/14,18:40,0.775,1.152,0.796,1.476,1.061,0.442,0.790,0.748,�k��,3.8,��
2019/02/14,18:50,0.774,1.148,0.795,1.474,1.060,0.441,0.788,0.747,�k��,3.3,��
2019/02/14,19:00,0.776,1.152,0.796,1.477,1.060,0.441,0.788,0.746,�k��,3.2,��
2019/02/14,19:10,0.775,1.150,0.794,1.474,1.060,0.441,0.788,0.747,�k��,3.0,��
2019/02/14,19:20,0.773,1.149,0.796,1.476,1.062,0.440,0.789,0.747,���k��,3.5,��
2019/02/14,19:30,0.773,1.149,0.794,1.476,1.060,0.440,0.787,0.746,��,4.1,��
2019/02/14,19:40,0.775,1.150,0.794,1.472,1.060,0.441,0.788,0.748,��,6.2,��
2019/02/14,19:50,0.772,1.150,0.795,1.476,1.060,0.440,0.788,0.747,��,6.9,��
2019/02/14,20:00,0.774,1.152,0.794,1.474,1.061,0.441,0.789,0.746,��,7.2,��
2019/02/14,20:10,0.774,1.148,0.792,1.477,1.060,0.441,0.787,0.748,��,7.6,��
2019/02/14,20:20,0.775,1.150,0.793,1.474,1.061,0.441,0.786,0.747,��,5.7,��
2019/02/14,20:30,0.775,1.149,0.793,1.475,1.060,0.442,0.787,0.747,���k��,5.1,��
2019/02/14,20:40,0.774,1.150,0.792,1.475,1.061,0.439,0.787,0.747,���k��,4.6,��
2019/02/14,20:50,0.775,1.151,0.793,1.474,1.060,0.440,0.788,0.746,���k��,2.9,��
2019/02/14,21:00,0.773,1.149,0.793,1.477,1.057,0.441,0.786,0.747,�k��,3.6,��
2019/02/14,21:10,0.773,1.151,0.795,1.475,1.058,0.439,0.788,0.746,���k��,4.2,��
2019/02/14,21:20,0.774,1.149,0.794,1.476,1.059,0.439,0.787,0.747,���k��,3.5,��
2019/02/14,21:30,0.774,1.151,0.796,1.474,1.059,0.441,0.786,0.745,���k��,4.2,��
2019/02/14,21:40,0.773,1.149,0.796,1.473,1.060,0.442,0.788,0.746,���k��,3.8,��
2019/02/14,21:50,0.773,1.152,0.791,1.476,1.058,0.441,0.789,0.747,���k��,3.8,��
2019/02/14,22:00,0.772,1.151,0.794,1.475,1.059,0.440,0.787,0.746,���k��,4.7,��
2019/02/14,22:10,0.773,1.147,0.793,1.475,1.059,0.440,0.787,0.747,�k��,4.0,��
2019/02/14,22:20,0.773,1.149,0.794,1.473,1.057,0.439,0.786,0.747,�k��,4.1,��
2019/02/14,22:30,0.774,1.151,0.795,1.476,1.059,0.440,0.786,0.745,�k�k��,3.2,��
2019/02/14,22:40,0.772,1.149,0.794,1.475,1.062,0.440,0.787,0.747,�k�k��,4.4,��
2019/02/14,22:50,0.775,1.149,0.795,1.475,1.061,0.440,0.787,0.747,�k�k��,4.6,��
2019/02/14,23:00,0.772,1.148,0.792,1.474,1.059,0.439,0.786,0.747,�k�k��,4.2,��
2019/02/14,23:10,0.772,1.147,0.792,1.475,1.058,0.440,0.787,0.748,�k��,3.6,��
2019/02/14,23:20,0.774,1.150,0.792,1.474,1.060,0.439,0.786,0.746,���k��,3.3,��
2019/02/14,23:30,0.773,1.150,0.795,1.474,1.060,0.440,0.786,0.746,���k��,3.8,��
2019/02/14,23:40,0.773,1.145,0.789,1.475,1.058,0.440,0.786,0.745,���k��,3.7,��
2019/02/14,23:50,0.772,1.149,0.790,1.475,1.058,0.439,0.786,0.747,��,4.8,��
